| time (UTC) | temp F | wind direction | speed knots | gust knots | rain 1hr in | rain 24hr in | rain mn in | humidity % | barometer mb |
| 20260504130424 | 58 | 262 | 7.8 | 9.6 | 0.00 | 0.00 | 0.00 | 63 | 4261.7 |
| 20260504110311 | 51 | 207 | 4.3 | 5.2 | 0.00 | 0.00 | 0.00 | 68 | 4261.5 |
| 20260504100229 | 51 | 216 | 4.3 | 5.2 | 0.00 | 0.00 | 0.00 | 67 | 4261.7 |
| 20260504081622 | 51 | 206 | 4.3 | 6.1 | 0.00 | 0.00 | 0.00 | 67 | 4262.3 |
| 20260504081118 | 51 | 202 | 4.3 | 5.2 | 0.00 | 0.00 | 0.00 | 66 | 4262.5 |
| 20260504080615 | 51 | 256 | 3.5 | 4.3 | 0.00 | 0.00 | 0.00 | 66 | 4262.4 |
| 20260504080111 | 51 | 202 | 4.3 | 5.2 | 0.00 | 0.00 | 0.00 | 66 | 4262.4 |
| 20260504050427 | 50 | 233 | 2.6 | 2.6 | 0.00 | 0.00 | 0.00 | 68 | 4264.7 |
| 20260504045924 | 51 | 253 | 2.6 | 4.3 | 0.00 | 0.00 | 0.00 | 67 | 4264.7 |
| 20260504045420 | 50 | 206 | 3.5 | 4.3 | 0.00 | 0.00 | 0.00 | 68 | 4264.6 |
| 20260504044916 | 50 | 219 | 4.3 | 4.3 | 0.00 | 0.00 | 0.00 | 68 | 4264.7 |
| 20260504044414 | 50 | 213 | 3.5 | 4.3 | 0.00 | 0.00 | 0.00 | 69 | 4264.9 |
| 20260504043911 | 50 | 231 | 3.5 | 4.3 | 0.00 | 0.00 | 0.00 | 68 | 4264.9 |
| 20260504043408 | 50 | 208 | 3.5 | 4.3 | 0.00 | 0.00 | 0.00 | 68 | 4264.8 |
| 20260504042906 | 50 | 217 | 3.5 | 4.3 | 0.00 | 0.00 | 0.00 | 68 | 4264.9 |
| 20260504042402 | 50 | 222 | 2.6 | 4.3 | 0.00 | 0.00 | 0.00 | 69 | 4264.8 |
| 20260504041858 | 50 | 192 | 3.5 | 5.2 | 0.00 | 0.00 | 0.00 | 68 | 4265.0 |
| 20260504041354 | 50 | 211 | 3.5 | 4.3 | 0.00 | 0.00 | 0.00 | 68 | 4265.0 |
| 20260504040850 | 50 | 200 | 2.6 | 4.3 | 0.00 | 0.00 | 0.00 | 68 | 4264.8 |
| 20260504040348 | 50 | 214 | 3.5 | 4.3 | 0.00 | 0.00 | 0.00 | 68 | 4265.0 |
| 20260504035844 | 51 | 240 | 2.6 | 2.6 | 0.00 | 0.00 | 0.00 | 68 | 4265.0 |
| 20260504035342 | 51 | 232 | 2.6 | 2.6 | 0.00 | 0.00 | 0.00 | 67 | 4265.1 |
| 20260504034838 | 51 | 208 | 0.9 | 1.7 | 0.00 | 0.00 | 0.00 | 67 | 4265.4 |
| 20260504034336 | 51 | 216 | 3.5 | 4.3 | 0.00 | 0.00 | 0.00 | 68 | 4265.3 |
| 20260504033833 | 50 | 225 | 3.5 | 4.3 | 0.00 | 0.00 | 0.00 | 68 | 4265.5 |
| 20260504033331 | 50 | 223 | 2.6 | 2.6 | 0.00 | 0.00 | 0.00 | 69 | 4265.3 |
| 20260504032827 | 50 | 242 | 1.7 | 1.7 | 0.00 | 0.00 | 0.00 | 70 | 4265.4 |
| 20260504032325 | 50 | 229 | 1.7 | 1.7 | 0.00 | 0.00 | 0.00 | 70 | 4265.6 |
| 20260504031821 | 50 | 241 | 1.7 | 2.6 | 0.00 | 0.00 | 0.00 | 70 | 4265.5 |
| 20260504031319 | 50 | 214 | 2.6 | 2.6 | 0.00 | 0.00 | 0.00 | 70 | 4265.7 |
| 20260504030815 | 50 | 218 | 3.5 | 4.3 | 0.00 | 0.00 | 0.00 | 70 | 4265.6 |
| 20260504030312 | 50 | 196 | 0.0 | 0.0 | 0.00 | 0.00 | 0.00 | 70 | 4265.6 |
| 20260504025808 | 50 | 233 | 2.6 | 4.3 | 0.00 | 0.00 | 0.00 | 71 | 4265.7 |
| 20260504025306 | 50 | 209 | 2.6 | 2.6 | 0.00 | 0.00 | 0.00 | 72 | 4265.7 |
| 20260504024802 | 50 | 235 | 1.7 | 2.6 | 0.00 | 0.00 | 0.00 | 72 | 4265.9 |
| 20260504024258 | 50 | 246 | 1.7 | 1.7 | 0.00 | 0.00 | 0.00 | 72 | 4265.9 |
| 20260504023755 | 49 | 237 | 1.7 | 2.6 | 0.00 | 0.00 | 0.00 | 72 | 4265.9 |
| 20260504023252 | 49 | 212 | 2.6 | 2.6 | 0.00 | 0.00 | 0.00 | 74 | 4265.8 |
| 20260504022747 | 49 | 235 | 0.0 | 0.0 | 0.00 | 0.00 | 0.00 | 75 | 4265.9 |
| 20260504022244 | 48 | 239 | 0.0 | 0.0 | 0.00 | 0.00 | 0.00 | 76 | 4265.8 |
| 20260504021741 | 48 | 236 | 0.0 | 0.0 | 0.00 | 0.00 | 0.00 | 76 | 4265.9 |
| 20260504021238 | 48 | 224 | 0.0 | 0.0 | 0.00 | 0.00 | 0.00 | 76 | 4266.0 |
| 20260504020735 | 48 | 246 | 0.9 | 1.7 | 0.00 | 0.00 | 0.00 | 76 | 4266.0 |
| 20260504020232 | 48 | 228 | 1.7 | 1.7 | 0.00 | 0.00 | 0.00 | 75 | 4266.0 |
| 20260504015728 | 48 | 235 | 0.0 | 0.0 | 0.00 | 0.00 | 0.00 | 75 | 4266.1 |
| 20260504015225 | 48 | 249 | 0.0 | 0.0 | 0.00 | 0.00 | 0.00 | 74 | 4266.1 |
| 20260504014720 | 49 | 232 | 0.0 | 0.0 | 0.00 | 0.00 | 0.00 | 73 | 4266.0 |
| 20260504014217 | 49 | 240 | 1.7 | 1.7 | 0.00 | 0.00 | 0.00 | 73 | 4266.1 |
| 20260504013715 | 49 | 232 | 0.0 | 0.0 | 0.00 | 0.00 | 0.00 | 72 | 4266.1 |
| 20260504013212 | 49 | 247 | 0.0 | 0.0 | 0.00 | 0.00 | 0.00 | 72 | 4265.9 |
| 20260504012709 | 50 | 255 | 0.0 | 0.0 | 0.00 | 0.00 | 0.00 | 71 | 4266.3 |
| 20260504012207 | 50 | 231 | 2.6 | 2.6 | 0.00 | 0.00 | 0.00 | 70 | 4266.1 |
| 20260504011703 | 50 | 223 | 0.0 | 0.0 | 0.00 | 0.00 | 0.00 | 70 | 4266.1 |
| 20260504011200 | 50 | 228 | 1.7 | 1.7 | 0.00 | 0.00 | 0.00 | 70 | 4266.2 |
| 20260504010656 | 51 | 244 | 1.7 | 1.7 | 0.00 | 0.00 | 0.00 | 69 | 4266.2 |
| 20260504010151 | 51 | 254 | 1.7 | 1.7 | 0.00 | 0.00 | 0.00 | 70 | 4266.2 |
| 20260504005649 | 51 | 229 | 1.7 | 1.7 | 0.00 | 0.00 | 0.00 | 68 | 4266.0 |
| 20260504005145 | 51 | 215 | 2.6 | 4.3 | 0.00 | 0.00 | 0.00 | 67 | 4266.3 |
| 20260504004644 | 51 | 238 | 2.6 | 2.6 | 0.00 | 0.00 | 0.00 | 67 | 4266.4 |
| 20260504004140 | 51 | 202 | 3.5 | 4.3 | 0.00 | 0.00 | 0.00 | 67 | 4266.4 |
| 20260504003637 | 51 | 230 | 2.6 | 4.3 | 0.00 | 0.00 | 0.00 | 67 | 4266.3 |
| 20260504003133 | 51 | 226 | 2.6 | 2.6 | 0.00 | 0.00 | 0.00 | 67 | 4266.1 |
| 20260504002630 | 51 | 216 | 4.3 | 5.2 | 0.00 | 0.00 | 0.00 | 66 | 4266.1 |
| 20260504002128 | 52 | 225 | 3.5 | 4.3 | 0.00 | 0.00 | 0.00 | 66 | 4266.2 |
| 20260504001625 | 52 | 219 | 7.8 | 8.7 | 0.00 | 0.00 | 0.00 | 65 | 4266.1 |
| 20260504001121 | 52 | 222 | 3.5 | 5.2 | 0.00 | 0.00 | 0.00 | 65 | 4266.4 |
| 20260504000619 | 52 | 239 | 5.2 | 7.0 | 0.00 | 0.00 | 0.00 | 65 | 4266.4 |
| 20260504000116 | 52 | 219 | 4.3 | 5.2 | 0.00 | 0.00 | 0.00 | 65 | 4266.4 |
| 20260503235614 | 52 | 231 | 4.3 | 5.2 | 0.00 | 0.00 | 0.00 | 65 | 4266.5 |
| 20260503235110 | 52 | 238 | 6.1 | 7.8 | 0.00 | 0.00 | 0.00 | 63 | 4266.6 |
| 20260503234609 | 52 | 216 | 9.6 | 11.3 | 0.00 | 0.00 | 0.00 | 64 | 4266.8 |
| 20260503234106 | 53 | 222 | 7.0 | 7.8 | 0.00 | 0.00 | 0.00 | 64 | 4266.8 |
| 20260503233603 | 53 | 233 | 13.9 | 17.4 | 0.00 | 0.00 | 0.00 | 63 | 4267.0 |
| 20260503233058 | 53 | 238 | 7.0 | 7.8 | 0.00 | 0.00 | 0.00 | 62 | 4267.0 |
| 20260503232556 | 53 | 226 | 6.1 | 7.8 | 0.00 | 0.00 | 0.00 | 63 | 4266.8 |
| 20260503232053 | 53 | 192 | 7.8 | 9.6 | 0.00 | 0.00 | 0.00 | 62 | 4266.9 |
| 20260503231551 | 53 | 230 | 10.4 | 13.0 | 0.00 | 0.00 | 0.00 | 62 | 4267.0 |
| 20260503231047 | 54 | 212 | 9.6 | 13.0 | 0.00 | 0.00 | 0.00 | 62 | 4267.1 |
| 20260503230544 | 54 | 239 | 13.9 | 17.4 | 0.00 | 0.00 | 0.00 | 60 | 4266.8 |
| 20260503230042 | 54 | 224 | 9.6 | 11.3 | 0.00 | 0.00 | 0.00 | 62 | 4266.9 |
| 20260503225538 | 55 | 243 | 9.6 | 12.2 | 0.00 | 0.00 | 0.00 | 61 | 4267.1 |
| 20260503225033 | 55 | 248 | 13.9 | 18.2 | 0.00 | 0.00 | 0.00 | 59 | 4267.0 |
| 20260503224531 | 56 | 251 | 13.0 | 15.6 | 0.00 | 0.00 | 0.00 | 58 | 4266.7 |
| 20260503224029 | 57 | 228 | 13.0 | 15.6 | 0.00 | 0.00 | 0.00 | 58 | 4266.7 |
| 20260503223526 | 57 | 232 | 13.0 | 13.9 | 0.00 | 0.00 | 0.00 | 55 | 4266.7 |
| 20260503223022 | 58 | 243 | 12.2 | 15.6 | 0.00 | 0.00 | 0.00 | 54 | 4266.5 |
| 20260503222520 | 58 | 250 | 19.1 | 22.6 | 0.00 | 0.00 | 0.00 | 52 | 4266.3 |
| 20260503222018 | 59 | 220 | 16.5 | 21.7 | 0.00 | 0.00 | 0.00 | 51 | 4266.5 |
| 20260503221516 | 60 | 234 | 17.4 | 20.0 | 0.00 | 0.00 | 0.00 | 47 | 4266.3 |
| 20260503221013 | 60 | 231 | 13.0 | 14.8 | 0.00 | 0.00 | 0.00 | 39 | 4266.3 |
| 20260503220509 | 61 | 233 | 8.7 | 11.3 | 0.00 | 0.00 | 0.00 | 38 | 4266.3 |
| 20260503220006 | 61 | 219 | 12.2 | 13.0 | 0.00 | 0.00 | 0.00 | 38 | 4266.3 |
| 20260503215503 | 60 | 205 | 13.0 | 20.9 | 0.00 | 0.00 | 0.00 | 38 | 4266.0 |
| 20260503215000 | 60 | 226 | 14.8 | 19.1 | 0.00 | 0.00 | 0.00 | 38 | 4266.2 |
| 20260503214458 | 60 | 214 | 8.7 | 9.6 | 0.00 | 0.00 | 0.00 | 37 | 4266.3 |
| 20260503213955 | 61 | 205 | 10.4 | 13.0 | 0.00 | 0.00 | 0.00 | 38 | 4266.3 |
| 20260503213453 | 61 | 243 | 13.0 | 14.8 | 0.00 | 0.00 | 0.00 | 36 | 4266.2 |
| 20260503212949 | 61 | 234 | 14.8 | 14.8 | 0.00 | 0.00 | 0.00 | 37 | 4266.5 |
| 20260503212447 | 61 | 206 | 11.3 | 13.9 | 0.00 | 0.00 | 0.00 | 37 | 4266.1 |
| 20260503211944 | 61 | 235 | 13.9 | 17.4 | 0.00 | 0.00 | 0.00 | 36 | 4266.4 |
| 20260503211441 | 61 | 222 | 12.2 | 15.6 | 0.00 | 0.00 | 0.00 | 36 | 4266.1 |
| 20260503210936 | 61 | 228 | 15.6 | 21.7 | 0.00 | 0.00 | 0.00 | 36 | 4266.4 |
| 20260503210433 | 61 | 221 | 13.9 | 17.4 | 0.00 | 0.00 | 0.00 | 35 | 4266.5 |
| 20260503205928 | 61 | 226 | 11.3 | 17.4 | 0.00 | 0.00 | 0.00 | 37 | 4266.5 |
| 20260503205426 | 61 | 204 | 10.4 | 13.9 | 0.00 | 0.00 | 0.00 | 39 | 4266.4 |
| 20260503204921 | 61 | 229 | 14.8 | 20.9 | 0.00 | 0.00 | 0.00 | 35 | 4266.6 |
| 20260503204419 | 62 | 248 | 12.2 | 17.4 | 0.00 | 0.00 | 0.00 | 37 | 4266.8 |
| 20260503203916 | 62 | 264 | 14.8 | 17.4 | 0.00 | 0.00 | 0.00 | 36 | 4266.8 |
| 20260503203413 | 61 | 239 | 14.8 | 18.2 | 0.00 | 0.00 | 0.00 | 35 | 4267.0 |
| 20260503202910 | 62 | 224 | 19.1 | 23.5 | 0.00 | 0.00 | 0.00 | 33 | 4266.9 |
| 20260503202409 | 61 | 226 | 11.3 | 13.9 | 0.00 | 0.00 | 0.00 | 36 | 4266.7 |
| 20260503201907 | 61 | 235 | 9.6 | 12.2 | 0.00 | 0.00 | 0.00 | 38 | 4266.7 |
| 20260503201403 | 61 | 220 | 16.5 | 18.2 | 0.00 | 0.00 | 0.00 | 36 | 4266.8 |
| 20260503200901 | 61 | 218 | 15.6 | 18.2 | 0.00 | 0.00 | 0.00 | 35 | 4266.8 |
| 20260503200356 | 62 | 226 | 14.8 | 19.1 | 0.00 | 0.00 | 0.00 | 34 | 4267.0 |
| 20260503195854 | 63 | 234 | 11.3 | 13.9 | 0.00 | 0.00 | 0.00 | 37 | 4266.9 |
| 20260503195350 | 63 | 235 | 13.0 | 15.6 | 0.00 | 0.00 | 0.00 | 34 | 4267.1 |
| 20260503194848 | 62 | 260 | 8.7 | 11.3 | 0.00 | 0.00 | 0.00 | 37 | 4267.1 |
| 20260503194343 | 62 | 238 | 7.0 | 8.7 | 0.00 | 0.00 | 0.00 | 36 | 4267.0 |
| 20260503193840 | 62 | 220 | 13.0 | 17.4 | 0.00 | 0.00 | 0.00 | 34 | 4267.4 |
| 20260503193336 | 62 | 219 | 13.0 | 15.6 | 0.00 | 0.00 | 0.00 | 34 | 4267.3 |
| 20260503192832 | 62 | 217 | 12.2 | 14.8 | 0.00 | 0.00 | 0.00 | 35 | 4267.3 |
| 20260503192327 | 61 | 225 | 14.8 | 20.0 | 0.00 | 0.00 | 0.00 | 34 | 4267.3 |
| 20260503191824 | 61 | 235 | 11.3 | 13.0 | 0.00 | 0.00 | 0.00 | 34 | 4267.5 |
| 20260503191321 | 61 | 245 | 15.6 | 17.4 | 0.00 | 0.00 | 0.00 | 36 | 4267.5 |
| 20260503190818 | 61 | 247 | 20.9 | 26.1 | 0.00 | 0.00 | 0.00 | 36 | 4267.7 |
| 20260503190315 | 62 | 219 | 16.5 | 19.1 | 0.00 | 0.00 | 0.00 | 36 | 4267.8 |
| 20260503185812 | 61 | 222 | 13.9 | 17.4 | 0.00 | 0.00 | 0.00 | 35 | 4268.0 |
| 20260503185308 | 62 | 225 | 10.4 | 13.0 | 0.00 | 0.00 | 0.00 | 37 | 4267.9 |
| 20260503184808 | 61 | 238 | 11.3 | 14.8 | 0.00 | 0.00 | 0.00 | 35 | 4268.0 |
| 20260503184304 | 61 | 234 | 13.0 | 15.6 | 0.00 | 0.00 | 0.00 | 36 | 4267.9 |
| 20260503183800 | 61 | 255 | 13.9 | 17.4 | 0.00 | 0.00 | 0.00 | 35 | 4268.0 |
| 20260503183258 | 61 | 221 | 15.6 | 20.0 | 0.00 | 0.00 | 0.00 | 34 | 4268.0 |
| 20260503182755 | 61 | 214 | 11.3 | 13.0 | 0.00 | 0.00 | 0.00 | 37 | 4268.3 |
| 20260503182254 | 60 | 214 | 13.0 | 14.8 | 0.00 | 0.00 | 0.00 | 35 | 4268.2 |
| 20260503181750 | 60 | 227 | 13.9 | 20.0 | 0.00 | 0.00 | 0.00 | 36 | 4268.3 |
| 20260503181248 | 61 | 224 | 16.5 | 20.0 | 0.00 | 0.00 | 0.00 | 36 | 4268.6 |
| 20260503180744 | 61 | 258 | 11.3 | 17.4 | 0.00 | 0.00 | 0.00 | 33 | 4268.3 |
| 20260503180242 | 61 | 223 | 8.7 | 9.6 | 0.00 | 0.00 | 0.00 | 35 | 4268.5 |
| 20260503175738 | 61 | 286 | 7.8 | 11.3 | 0.00 | 0.00 | 0.00 | 36 | 4268.4 |
| 20260503175237 | 61 | 215 | 14.8 | 19.1 | 0.00 | 0.00 | 0.00 | 36 | 4268.6 |
| 20260503174732 | 60 | 223 | 13.0 | 18.2 | 0.00 | 0.00 | 0.00 | 34 | 4268.6 |
| 20260503174231 | 61 | 233 | 12.2 | 13.0 | 0.00 | 0.00 | 0.00 | 38 | 4268.7 |
| 20260503173730 | 61 | 235 | 11.3 | 12.2 | 0.00 | 0.00 | 0.00 | 39 | 4268.9 |
| 20260503173227 | 60 | 235 | 13.0 | 18.2 | 0.00 | 0.00 | 0.00 | 35 | 4268.7 |
| 20260503172724 | 60 | 234 | 13.0 | 17.4 | 0.00 | 0.00 | 0.00 | 37 | 4269.0 |
| 20260503172221 | 60 | 256 | 11.3 | 13.0 | 0.00 | 0.00 | 0.00 | 38 | 4268.8 |
| 20260503171717 | 60 | 285 | 9.6 | 13.0 | 0.00 | 0.00 | 0.00 | 37 | 4268.9 |
| 20260503171215 | 60 | 235 | 10.4 | 13.0 | 0.00 | 0.00 | 0.00 | 38 | 4269.0 |
| 20260503170712 | 60 | 256 | 22.6 | 26.9 | 0.00 | 0.00 | 0.00 | 37 | 4269.2 |
| 20260503170208 | 60 | 219 | 18.2 | 22.6 | 0.00 | 0.00 | 0.00 | 39 | 4269.0 |
| 20260503160130 | 57 | 228 | 9.6 | 12.2 | 0.00 | 0.00 | 0.00 | 49 | 4269.9 |
| 20260503150600 | 54 | 225 | 9.6 | 12.2 | 0.00 | 0.00 | 0.00 | 51 | 4270.4 |
| 20260503130943 | 47 | 218 | 13.0 | 14.8 | 0.00 | 0.00 | 0.00 | 59 | 4270.9 |